OPS 0100 DEB *, 4843

Orbit data source: Space-Track

OPS 0100 DEB *, 4843 is space debris in LEO originally from a launch on Fri, 14 Apr 1967 UTC launched from the Air Force Western Test Range (AFWTR). Debris objects in space refer to the collection of defunct objects orbiting the Earth. Examples of debris include non-operational satellites, rocket bodies, and fragments generated from explosions, collisions, or faulty payload assembly.

Loading next visibility...
Identifier
4843, 1967-034E
Orbit
LEO
Country
Flag of USUS
Related business
Manufacturer
Unknown
Mission
Spacecraft
Bus & Motor
Unknown
Mass
Unknown
Launch date (UTC)
1967-04-14 (59 years ago)
Launch vehicle
Unknown
Launch site
Air Force Western Test Range (AFWTR)
Object type
Payload
Rocket body
Debris
Shape & HBR
Unknown shape, 0.1 m
Radar Cross Section
Small (<0.1 m²)

Expand to show TLE details & history
Last TLE update: 3 days ago

TLE from 3 days ago
0 OPS 0100 DEB *
1 04843U 67034E   26032.28068324  .00000163  00000-0  23293-3 0  9997
2 04843  90.3675 136.2293 0028508 163.8894 251.4444 13.52620600255279
Epoch: 2026-02-01T06:44Z
TLE epoch observation values (Epoch: 2026-02-01T06:44:11.031Z)
Latitude
55.11656°
Longitude
-96.83368°
Altitude
1,078.645 km
Speed
7.315 km/s
True Right ascension
09h 02m 49s
True Declination
54° 57' 43"
Sunlit
Object was in full shadow at epoch
Visualization orbit readout
Latitude
Unknown
Longitude
Unknown
Altitude
Unknown
Speed
Unknown
Apparent Right ascension
Unknown
Apparent Declination
Unknown
Sunlit
N/A
Visualization observer readout
Local Sidereal Time
10:06:22
Azimuth
Unknown
Elevation
Unknown
Doppler factor
Unknown
Orbital elements
Apogee altitude
1,080.882 km
Perigee altitude
1,038.475 km
Semi-major axis
7,437.816 km
Eccentricity
0.00285
Inclination
90.3675°
RAAN
136.2293°
Arg. of periapsis
163.8894°
True anomaly
251.13506°
Mean anomaly
251.4444°
Eccentric anomaly
251.28969°
Mean motion
3.38357 °/min
Orbital period
106.4 mins
BSTAR
0.00023293
Loading maneuver chart data...
Computing Atmospheric mass density...
Loading historical data...
Loading historical data...
Loading historical data...
Loading historical data...
Loading historical data...
Loading historical data...
Loading historical data...

Documentation

Showing up to 5 results
|